User: anonymous
Location: Unspecified
(0.0000°N, 0.0000°E)
Time: 11:36:38
(UTC+02:00)
Language:

Landsat 4 - Orbit

View from above orbital plane
View from above orbital plane
View from above satellite
View from above satellite

Ground track
Ground track

The orbit data is extracted from the following two-line orbital elements,

1 13367U 82072A   14110.18952272  .00008068  00000-0  50069-3 0  6130
2 13367 098.2160 169.0884 0015987 152.8522 272.6947 15.09901856710468
Epoch (UTC): 20 April 2014 04:32:54
Eccentricity: 0.0015987
inclination: 98.2160°
perigee height: 525 km
apogee height: 547 km
right ascension of ascending node: 169.0884°
argument of perigee: 152.8522°
revolutions per day: 15.09901856
mean anomaly at epoch: 272.6947°
orbit number at epoch: 71046

The dashed part of the orbit path shows where the satellite is in the earth's shadow,  

DLR